Tracking 17784 objects as of 24-July-2016
HD Live streaming from Space Station
objects crossing your sky now

CZ-3C R/B

Track CZ-3C R/B now!
10-day predictions


NORAD ID: 36591
Int'l Code: 2010-024B
Perigee: 179.1 km
Apogee: 19,276.3 km
Inclination: 20.6 °
Period: 338.8 minutes
Semi major axis: 16098 km
RCS: 15.0139 m2 (large)
Launch date: June 2, 2010
Source: People's Republic of China (PRC)
Launch site: Xichang Space Center, China (XSC)

Note: This is a ROCKET BODY
Your satellite tracking list
Your tracking list is empty





NASA's NSSDC Master Catalog

Two Line Element Set (TLE):
1 36591U 10024B   16206.14258843  .00083106  18958-6  10239-2 0  9993
2 36591  20.6199 202.6477 5931289 116.6151 314.7691  4.25027000 72021
Source of the keplerian elements: AFSPC

N2YO: 858